This is the latest recevied weather packets stored in our database for station/object K1RFS. If no packets are shown the sender has not sent any weather packets the latest 10 day(s).
| Time | Temp. | Humidity | Pressure | Rain* | Wind** | Luminosity | Snow |
|---|---|---|---|---|---|---|---|
| 1788358923 | 20° C | 52% | 1000.9 hPa | 0 mm | - | 25 W/m² | - |
| 1788358617 | 20° C | 53% | 1000.7 hPa | 0 mm | - | 23 W/m² | - |
| 1788358313 | 19.44° C | 51% | 1000.6 hPa | 0 mm | - | 22 W/m² | - |
| 1788358008 | 19.44° C | 48% | 1000.6 hPa | 0 mm | - | 20 W/m² | - |
| 1788357703 | 19.44° C | 48% | 1000.7 hPa | 0 mm | - | 20 W/m² | - |
| 1788357402 | 18.89° C | 49% | 1000.7 hPa | 0 mm | - | 19 W/m² | - |
| 1788357098 | 18.89° C | 50% | 1000.5 hPa | 0 mm | - | 17 W/m² | - |
| 1788356793 | 18.33° C | 51% | 1000.8 hPa | 0 mm | - | 15 W/m² | - |
| 1788356493 | 18.33° C | 52% | 1000.6 hPa | 0 mm | - | 13 W/m² | - |
| 1788356188 | 18.33° C | 53% | 1000.6 hPa | 0 mm | - | 12 W/m² | - |
| 1788355887 | 18.33° C | 53% | 1000.6 hPa | 0 mm | - | 11 W/m² | - |
| 1788355583 | 18.33° C | 55% | 1000.7 hPa | 0 mm | - | 9 W/m² | - |
| 1788355278 | 18.33° C | 55% | 1000.7 hPa | 0 mm | - | 9 W/m² | - |
| 1788354974 | 18.33° C | 55% | 1000.8 hPa | 0 mm | - | 7 W/m² | - |
| 1788354669 | 17.78° C | 59% | 1000.9 hPa | 0 mm | - | 5 W/m² | - |
| 1788354365 | 17.78° C | 59% | 1000.8 hPa | 0 mm | - | 3 W/m² | - |
| 1788354059 | 17.78° C | 59% | 1000.6 hPa | 0 mm | - | 3 W/m² | - |
| 1788353755 | 17.78° C | 59% | 1000.8 hPa | 0 mm | - | 2 W/m² | - |
| 1788353451 | 17.78° C | 59% | 1000.8 hPa | 0 mm | - | 1 W/m² | - |
| 1788353148 | 17.22° C | 60% | 1000.5 hPa | 0 mm | - | 0 W/m² | - |
| 1788352848 | 16.67° C | 61% | 1000.7 hPa | 0 mm | - | 0 W/m² | - |
| 1788352544 | 16.67° C | 60% | 1000.6 hPa | 0 mm | - | 0 W/m² | - |
| 1788352243 | 16.67° C | 60% | 1000.6 hPa | 0 mm | - | 0 W/m² | - |
| 1788351937 | 16.67° C | 59% | 1000.6 hPa | 0 mm | - | 0 W/m² | - |
| 1788351628 | 17.22° C | 57% | 1000.7 hPa | 0 mm | - | 0 W/m² | - |
* Rain latest hour (hover to see other rain measurements)
** Current wind speed in m/s (hover to see current wind gust speed)